New Orleans NAS, LA

4:04 AM CDT on March 24, 2017 (GMT -0500)
New Orleans Naval Air Station

Weather History for KNBG - February, 2013

Change the Weather History Date:

Tuesday, February 12, 2013

  Actual Average Record
Temperature  
Mean Temperature 68 °F -  
Max Temperature 75 °F 62 °F 79 °F (2000)
Min Temperature 60 °F 47 °F 26 °F (2011)
Cooling Degree Days 2    
Growing Degree Days 18 (Base 50)    
Moisture  
Dew Point 64 °F    
Average Humidity 84    
Maximum Humidity 94    
Minimum Humidity 73    
Precipitation  
Precipitation 0.00 in - - ()
Sea Level Pressure  
Sea Level Pressure 29.86 in    
Wind  
Wind Speed 9 mph (SW)    
Max Wind Speed 18 mph    
Max Gust Speed -    
Visibility 4 miles    
Events Fog , Rain    
Averages and records for this station are not official NWS values.
T = Trace of Precipitation, MM = Missing Value Source: NWS Daily Summary

Daily Weather History Graph

Daily Weather History Graph

Search for Another Location

Airport or City:

Trip Planner

Search our weather history database for the weather conditions in past years. The results will help you decide how hot, cold, wet, or windy it might be!

Date:

Astronomy

Feb. 12, 2013 Rise Set
Actual Time 6:42 AM CST 5:46 PM CST
Civil Twilight 6:17 AM CST 6:11 PM CST
Nautical Twilight 5:49 AM CST 6:39 PM CST
Astronomical Twilight 5:21 AM CST 7:07 PM CST
Moon 7:55 AM CST (2/12) 8:29 PM CST (2/12)
Length of Visible Light 11h 53m
Length of Day
11h 04m
Waxing Crescent, 7% of the Moon is Illuminated
Feb 12
Waxing Crescent
Feb 17
First Quarter
Feb 25
Full
Mar 4
Last Quarter
Mar 11
New

Hourly Weather History & Observations

Time (CST) Temp. Dew Point Humidity Pressure Visibility Wind Dir Wind Speed Gust Speed Precip Events Conditions
12:55 AM - - N/A% 30.04 in - North - - N/A   Unknown
2:55 AM - - N/A% 30.01 in - North - - N/A   Unknown
3:55 AM - - N/A% 29.99 in - North - - N/A   Unknown
6:10 AM 64.4 °F 55.4 °F 73% 29.96 in 7.0 mi South 8.1 mph - N/A   Overcast
6:50 AM 60.8 °F 57.2 °F 88% 29.95 in 1.0 mi South 8.1 mph - N/A   Overcast
6:55 AM 60.8 °F 57.2 °F 88% 29.95 in 1.0 mi South 8.1 mph - N/A   Overcast
9:55 AM 63.5 °F 59.5 °F 87% 29.92 in 2.5 mi South 5.8 mph - N/A   Overcast
10:41 AM 66.2 °F 62.6 °F 88% 29.91 in 0.8 mi Variable 5.8 mph - N/A   Overcast
10:55 AM 65.3 °F 61.7 °F 88% 29.91 in 0.8 mi Variable 5.8 mph - N/A   Overcast
11:55 AM 66.9 °F 63.1 °F 88% 29.87 in 0.5 mi Variable 5.8 mph - N/A Fog Fog
11:57 AM 66.2 °F 64.4 °F 94% 29.87 in 0.5 mi Variable 5.8 mph - N/A Fog Fog
12:24 PM 66.2 °F 64.4 °F 94% 29.85 in 0.8 mi Variable 5.8 mph - N/A Rain Light Rain
12:55 PM 66.7 °F 63.5 °F 89% 29.83 in 0.8 mi ESE 5.8 mph - N/A Rain Light Rain
1:42 PM 73.4 °F 68.0 °F 83% 29.80 in 1.0 mi South 11.5 mph - N/A   Haze
1:55 PM 73.6 °F 68.5 °F 84% 29.79 in 3.0 mi South 12.7 mph - N/A   Haze
2:55 PM 75.2 °F 68.7 °F 80% 29.78 in 3.0 mi SSW 16.1 mph - N/A   Haze
3:55 PM 75.2 °F 68.7 °F 80% 29.77 in 4.0 mi SW 18.4 mph - N/A   Haze
4:55 PM 73.9 °F 68.0 °F 82% 29.77 in 4.0 mi WSW 13.8 mph - N/A   Haze
5:37 PM 73.4 °F 68.0 °F 83% 29.78 in 4.0 mi WSW 16.1 mph - N/A Rain Rain
5:55 PM 73.0 °F 67.6 °F 83% 29.78 in 5.0 mi West 12.7 mph - N/A   Haze
6:55 PM 72.7 °F 67.3 °F 83% 29.80 in 7.0 mi WSW 11.5 mph - N/A   Mostly Cloudy
7:55 PM 71.8 °F 65.8 °F 81% 29.80 in 7.0 mi WSW 12.7 mph - N/A   Scattered Clouds
8:55 PM 71.6 °F 65.8 °F 82% 29.80 in 7.0 mi West 10.4 mph - N/A   Scattered Clouds
9:38 PM 71.6 °F 66.2 °F 83% 29.83 in 7.0 mi WSW 12.7 mph - N/A   Mostly Cloudy
9:55 PM 70.9 °F 64.9 °F 81% 29.83 in 7.0 mi West 9.2 mph - N/A   Mostly Cloudy
10:44 PM 69.8 °F 64.4 °F 83% 29.83 in 9.0 mi West 8.1 mph - N/A   Mostly Cloudy
10:55 PM 70.2 °F 63.9 °F 80% 29.83 in 9.0 mi West 8.1 mph - N/A   Mostly Cloudy